Lapse_Rate
6.7 6.8 6.8 6.7 6.7 6.7 6.8 6.9 6.9 6.9 6.7 6.6 6.5 6.5 6.5 6.5 6.5 6.5 6.4 6.3 6.3 6.3 6.2 6.1 6.1 6.1 6.0 6.1 6.3 6.3 6.3 6.2 6.3 6.4 6.5 6.4 6.3 6.2 6.3 6.6 6.7 6.9 7.1 7.2 7.3 7.2 7.2
6.7 6.8 6.7 6.7 6.7 6.8 6.8 6.9 6.9 6.8 6.7 6.6 6.6 6.7 6.6 6.6 6.5 6.4 6.3 6.2 6.3 6.3 6.2 6.2 6.3 6.3 6.2 6.3 6.4 6.4 6.3 6.3 6.2 6.2 6.3 6.3 6.4 6.5 6.7 6.7 6.6 6.9 6.9 7.0 7.2 7.1 7.1
6.8 6.8 6.8 6.7 6.7 6.8 6.8 6.7 6.7 6.7 6.7 6.6 6.6 6.6 6.6 6.5 6.3 6.2 6.1 6.1 6.2 6.3 6.3 6.2 6.3 6.3 6.2 6.3 6.3 6.3 6.5 6.4 6.3 6.3 6.3 6.4 6.4 6.4 6.5 6.7 6.9 7.0 7.1 7.0 7.3 7.2 6.9
6.7 6.7 6.7 6.7 6.7 6.7 6.6 6.6 6.6 6.6 6.6 6.6 6.6 6.5 6.4 6.4 6.3 6.3 6.3 6.4 6.4 6.4 6.4 6.4 6.4 6.5 6.4 6.4 6.4 6.5 6.5 6.4 6.4 6.4 6.5 6.6 6.6 6.6 6.6 6.7 6.9 6.8 6.8 7.1 7.5 7.3 7.0
6.6 6.7 6.7 6.6 6.6 6.5 6.5 6.5 6.4 6.4 6.5 6.4 6.4 6.4 6.4 6.2 6.2 6.2 6.2 6.3 6.3 6.4 6.5 6.5 6.5 6.5 6.5 6.4 6.4 6.3 6.4 6.5 6.7 6.6 6.7 6.7 6.8 6.8 6.9 6.8 6.6 6.8 6.6 6.8 7.0 7.2 6.7
6.3 6.5 6.6 6.5 6.4 6.4 6.5 6.4 6.3 6.4 6.4 6.3 6.3 6.3 6.2 6.2 6.2 6.1 6.1 6.2 6.3 6.5 6.5 6.4 6.4 6.4 6.3 6.3 6.3 6.3 6.5 6.7 6.8 6.7 6.7 6.7 6.8 6.9 7.0 6.6 6.3 6.3 6.3 6.3 6.7 7.0 6.5
6.1 6.3 6.4 6.5 6.4 6.3 6.2 6.2 6.3 6.3 6.3 6.4 6.3 6.2 6.1 6.1 6.1 6.1 6.1 6.2 6.3 6.4 6.4 6.4 6.4 6.3 6.2 6.1 6.1 6.3 6.5 6.6 6.7 6.6 6.5 6.7 6.7 6.8 6.4 6.5 6.3 6.1 6.1 6.1 6.9 6.8 6.0
6.4 6.2 6.2 6.3 6.4 6.4 6.3 6.2 6.3 6.3 6.3 6.1 6.0 6.0 6.1 6.2 6.2 6.2 6.2 6.1 6.1 6.0 6.0 6.0 5.8 5.6 5.6 5.6 5.7 5.9 6.0 6.4 6.4 6.4 6.4 6.5 6.8 6.7 6.5 6.5 6.5 6.4 6.2 6.6 6.5 6.6 6.3
6.4 6.4 6.2 6.2 6.2 6.3 6.2 6.2 6.2 6.1 6.0 6.0 5.9 6.0 6.1 6.1 6.0 6.0 5.9 5.8 5.6 5.6 5.6 5.5 5.3 5.2 5.4 5.5 5.6 5.6 5.8 6.0 6.2 6.3 6.1 6.2 6.3 6.5 6.4 6.5 6.5 6.5 6.5 6.6 6.4 6.5 6.5
6.3 6.5 6.7 6.6 6.5 6.3 6.3 6.3 6.2 5.9 5.8 5.8 6.0 6.0 6.0 5.9 5.9 5.7 5.6 5.6 5.6 5.6 5.6 5.2 5.3 5.3 5.4 5.7 5.7 5.8 5.8 6.1 6.2 6.0 6.0 6.3 6.4 6.3 6.2 6.4 6.6 6.3 6.7 6.6 6.5 6.3 6.2
6.2 6.4 6.4 6.7 6.5 6.5 6.3 6.2 6.0 5.8 5.8 5.9 5.9 5.8 5.7 5.6 5.6 5.6 5.6 5.6 5.6 5.6 3.4 5.3 5.4 5.4 5.7 6.0 6.1 6.2 6.3 6.6 6.4 6.2 6.1 6.4 6.2 6.2 6.3 6.6 6.5 6.5 6.4 6.4 6.4 6.3 6.0
6.2 6.4 6.6 6.5 6.6 6.4 6.3 5.9 5.7 5.8 5.8 5.8 5.7 5.7 5.7 5.7 5.8 5.6 5.6 5.6 5.7 5.7 4.9 5.5 5.6 5.7 6.0 6.0 6.3 6.4 6.5 6.2 6.0 5.9 6.0 6.3 6.1 6.3 6.5 6.6 6.7 6.4 6.3 6.4 6.3 5.9 5.4
6.4 6.3 6.3 6.4 6.3 6.4 6.1 5.8 5.6 5.6 5.7 5.8 5.8 5.6 5.8 5.8 5.7 5.7 5.7 5.6 5.7 5.8 5.7 5.6 5.7 5.9 6.2 6.4 6.3 6.3 6.1 5.9 5.8 5.5 5.6 6.2 6.6 6.8 6.8 7.0 6.9 6.8 6.6 6.1 5.7 5.2 5.8
6.5 6.5 6.7 6.5 6.3 6.0 5.8 5.8 5.8 5.7 5.8 5.7 5.7 5.8 5.8 5.9 5.8 5.7 5.6 5.6 5.7 5.7 5.9 5.8 5.9 6.0 6.2 6.2 6.0 6.1 5.9 5.8 5.8 5.8 5.8 5.6 5.7 6.2 6.2 6.5 6.4 6.5 6.7 7.1 6.7 6.1 6.5
6.5 6.4 6.4 6.5 6.3 5.8 5.8 5.8 5.9 5.8 5.8 5.8 5.9 6.0 5.9 5.9 5.8 5.6 5.6 5.7 5.8 5.7 5.7 5.8 5.9 5.7 5.9 6.1 6.0 5.9 5.7 5.3 5.3 5.4 5.5 5.6 5.7 6.0 6.3 6.2 6.3 6.5 6.5 7.1 7.3 7.3 6.5
6.3 6.5 6.3 6.2 6.0 5.8 5.8 5.7 5.8 5.9 6.0 6.1 6.1 6.2 6.0 5.9 5.7 5.7 5.7 5.7 5.6 5.8 5.6 5.6 5.6 5.5 5.6 5.6 5.5 5.5 5.4 5.0 5.0 4.9 4.8 4.8 4.5 5.1 5.5 6.1 6.4 6.9 6.8 7.0 7.0 7.0 7.1
6.2 6.2 6.2 5.9 5.9 6.0 5.9 5.8 5.9 6.1 6.1 6.1 6.2 6.1 5.9 5.8 5.7 5.7 5.7 5.6 5.7 5.7 5.5 5.3 5.2 5.2 5.1 5.1 5.0 4.9 4.9 4.8 4.7 4.8 4.6 4.5 4.4 4.8 5.2 5.4 5.9 6.3 6.6 6.8 7.0 7.3 7.6
6.2 6.1 6.1 6.0 6.0 5.9 5.8 5.9 5.9 6.1 6.1 6.0 6.1 6.0 5.8 5.7 5.7 5.6 5.7 5.5 5.5 5.7 5.5 5.2 5.2 5.2 5.0 4.8 4.6 4.4 4.5 4.2 4.2 3.9 4.2 4.6 4.8 4.3 4.5 5.0 5.8 6.1 6.3 6.2 6.5 6.8 6.9
6.0 6.1 5.8 5.9 6.1 5.9 5.9 6.0 6.0 6.0 6.1 6.0 6.0 5.9 5.8 5.6 5.6 5.7 5.6 5.6 5.5 5.5 5.5 5.2 5.0 4.9 4.8 4.4 4.5 3.8 3.7 3.6 3.3 3.7 4.0 3.7 4.0 4.0 4.1 5.0 5.2 5.3 5.8 5.4 5.0 6.0 6.7
5.8 5.9 5.9 5.8 5.8 5.8 5.8 6.0 6.0 6.0 6.0 6.0 5.8 5.7 5.8 5.7 5.6 5.7 5.6 5.5 5.5 5.4 5.3 5.3 4.9 4.9 4.7 4.3 3.8 3.6 3.6 3.6 3.6 3.9 4.2 4.2 3.7 4.0 4.1 4.2 4.3 4.3 4.9 6.5 6.3 5.7 6.2
5.7 5.7 5.9 5.9 5.5 5.6 5.8 6.1 6.0 6.0 5.9 5.8 5.7 5.6 5.6 5.6 5.7 5.7 5.5 5.3 5.2 5.0 5.0 4.8 4.6 4.4 4.1 3.7 3.3 3.4 3.4 3.6 3.8 4.0 3.9 3.8 3.9 4.7 5.1 5.8 6.6 6.2 6.2 5.9 5.5 6.0 6.1
5.5 5.4 5.7 5.8 5.7 5.4 5.6 5.9 5.7 5.9 6.0 5.9 5.7 5.6 5.6 5.6 5.7 5.5 5.4 5.3 5.3 5.2 4.9 4.6 4.2 3.9 3.5 3.4 3.2 3.3 3.5 3.8 3.7 4.0 4.2 4.4 5.0 5.3 6.2 6.8 6.8 6.7 6.8 6.5 6.9 6.1 6.3
5.1 5.1 5.2 5.7 5.7 5.6 5.5 5.6 5.7 5.8 5.9 5.8 5.7 5.6 5.6 5.5 5.4 5.3 5.3 5.2 5.0 4.9 4.4 4.1 3.8 3.4 3.4 3.4 3.4 3.9 4.0 4.2 4.2 4.7 5.3 5.9 6.1 6.1 6.5 7.2 7.4 7.5 7.3 7.4 7.1 6.9 6.8
4.7 4.7 5.2 5.3 5.5 5.5 5.3 5.5 5.6 5.7 5.7 5.6 5.7 5.6 5.5 5.4 5.4 5.2 4.7 4.8 4.7 4.3 3.8 3.4 2.9 2.7 3.1 3.2 3.6 4.1 4.5 5.0 5.8 6.4 6.7 6.7 7.0 7.2 7.3 7.8 7.1 7.9 7.4 7.6 7.4 7.6 7.5
4.2 5.3 5.3 5.4 5.3 5.2 5.2 5.4 5.6 5.7 5.8 5.7 5.6 5.6 5.6 5.4 5.2 4.9 4.7 4.5 4.1 3.7 3.4 3.0 2.9 3.0 3.3 3.6 4.0 4.3 4.9 6.0 6.6 6.9 7.2 7.6 7.6 7.6 8.0 7.8 8.5 8.0 8.0 7.6 7.5 6.9 7.4
4.9 5.2 5.1 5.1 5.2 5.0 5.2 5.4 5.5 5.6 5.7 5.6 5.6 5.6 5.5 5.2 5.0 4.8 4.3 4.0 3.7 3.2 3.1 2.9 3.1 3.4 3.8 4.0 4.4 5.1 6.1 6.6 6.6 7.0 7.3 7.8 7.9 8.0 8.2 8.4 8.1 8.7 8.2 7.8 7.8 7.6 7.3
4.8 4.9 4.8 4.8 5.3 5.2 5.3 5.3 5.4 5.5 5.6 5.5 5.3 5.3 5.1 5.0 4.6 4.2 4.0 3.7 3.2 3.1 3.2 3.3 3.8 4.0 4.2 4.7 5.6 6.1 6.5 6.5 6.6 6.8 7.1 7.7 8.1 8.2 8.4 8.3 8.5 8.5 8.1 7.9 7.6 7.3 7.3
4.1 4.4 4.9 4.7 5.1 5.2 5.2 5.2 5.3 5.4 5.4 5.2 4.9 4.7 4.6 4.2 4.1 3.6 3.2 3.1 2.9 3.0 3.4 3.5 3.7 4.0 4.5 5.5 6.2 6.4 6.4 6.5 6.8 7.2 7.2 7.6 7.9 8.1 8.0 8.0 7.5 7.9 7.7 7.5 6.9 7.2 6.8
4.4 4.9 4.8 4.9 4.9 5.0 5.1 5.3 5.3 5.2 5.0 4.8 4.3 4.0 3.7 3.7 3.5 3.0 2.8 2.9 2.8 3.0 3.3 3.5 3.7 4.5 5.3 6.0 6.2 6.2 6.3 6.6 7.0 7.4 7.6 7.8 7.8 7.7 7.6 7.8 7.6 7.2 7.0 6.8 6.6 6.5 6.5
Wind_Speed
12 10 10 10 11 12 13 13 15 15 16 17 17 18 18 18 18 18 18 17 16 15 14 11 9 8 1 3 1 2 3 7 3 3 4 3 4 2 1 0 1 2 2 2 2 3 4
9 9 9 11 11 12 13 14 15 16 17 17 18 19 19 19 19 18 18 18 16 15 11 7 5 5 1 2 2 1 2 2 4 4 3 4 3 3 4 2 2 1 4 6 5 3 4
8 8 9 10 11 12 13 14 15 16 17 18 19 19 20 20 20 19 19 18 18 14 7 4 2 1 3 1 2 0 3 1 2 2 3 1 2 1 4 1 1 1 5 5 5 3 5
7 7 8 9 11 13 14 15 16 17 17 18 19 20 20 20 19 19 19 17 15 5 2 1 1 1 2 2 2 1 2 3 3 4 4 2 3 4 2 1 3 2 3 4 1 5 1
3 6 8 9 11 13 14 16 17 18 19 20 20 21 21 20 19 19 18 16 5 3 3 2 2 1 2 1 2 2 3 2 2 3 4 3 4 3 3 4 3 5 3 2 8 5 3
6 6 8 10 11 14 15 16 18 19 20 21 22 22 21 21 20 18 17 5 2 2 2 1 1 3 3 2 2 2 2 3 3 1 2 4 4 3 3 3 4 3 3 3 6 2 3
5 8 9 10 12 14 16 18 19 20 21 22 23 22 20 19 19 16 4 3 4 3 8 2 3 2 2 5 1 4 2 2 2 5 1 3 3 5 6 6 1 2 2 5 5 5 3
6 8 9 11 13 14 17 18 20 21 22 23 23 21 19 18 17 9 3 5 3 2 2 1 1 2 3 2 3 3 1 2 3 1 2 4 4 4 2 3 3 3 3 6 6 3 6
4 6 10 13 14 15 15 18 20 21 22 23 23 21 21 19 6 6 5 3 4 2 3 4 1 2 1 1 1 3 1 1 2 2 0 3 1 1 1 2 3 4 5 5 8 3 3
4 6 8 11 14 17 17 17 18 20 22 23 23 20 21 19 5 1 3 4 4 3 4 6 4 2 1 1 2 1 1 2 1 1 2 5 3 2 2 4 6 3 8 3 2 2 4
4 7 10 11 14 17 19 19 19 19 20 21 21 18 13 13 4 3 3 9 2 2 4 2 3 1 1 1 0 2 1 1 4 4 3 7 3 4 4 6 6 7 2 4 2 3 3
4 7 9 12 14 16 18 20 21 21 21 20 17 15 8 5 3 1 9 4 2 6 4 2 3 5 5 3 2 3 1 3 0 1 3 7 3 4 7 3 6 3 2 4 3 2 4
3 6 9 11 13 16 17 19 23 22 21 20 14 9 6 2 2 11 4 3 5 5 3 4 3 5 2 4 3 4 3 5 4 6 3 4 5 3 2 2 1 3 4 3 3 1 6
2 5 9 11 13 15 17 20 20 22 21 19 10 3 3 6 7 3 3 5 3 2 2 2 3 4 2 6 3 6 2 5 7 5 3 2 7 3 3 3 2 5 7 4 6 5 5
2 6 8 11 13 15 17 20 21 21 19 16 3 3 2 5 7 2 5 4 1 2 3 6 5 3 3 3 4 6 5 5 5 8 2 5 6 4 2 2 3 2 4 3 4 1 1
2 5 8 11 14 16 18 20 21 21 19 9 2 2 2 17 5 4 5 4 2 3 4 3 1 3 2 6 7 7 2 5 7 6 3 5 8 3 4 4 1 3 2 4 1 5 15
5 5 8 11 14 17 19 21 23 20 17 3 3 3 3 17 2 5 4 3 3 3 3 3 1 3 3 3 3 3 4 4 6 7 6 5 1 8 5 2 5 5 6 3 2 4 12
5 5 8 12 15 18 21 23 24 20 15 6 2 2 4 4 4 2 3 2 4 4 7 5 4 3 3 4 2 2 3 4 7 7 5 3 4 8 13 14 11 5 7 4 4 9 4
5 5 8 11 15 18 22 24 25 18 10 3 3 1 3 3 3 2 1 4 4 5 5 5 4 5 4 2 4 3 3 6 10 5 5 3 2 6 14 5 6 5 12 11 15 10 6
6 5 9 12 15 18 22 24 26 16 6 4 3 2 4 4 2 5 4 2 3 5 4 4 3 5 5 5 4 3 4 1 7 4 6 5 2 3 8 14 15 17 21 27 11 10 12
7 7 9 12 15 18 22 25 29 15 6 4 4 1 1 2 4 4 4 2 2 2 3 5 4 5 2 2 3 1 2 5 5 4 4 3 4 7 12 17 20 19 22 20 21 18 16
9 7 10 12 15 19 24 27 30 19 5 4 3 4 3 2 2 4 5 2 2 1 2 2 4 2 1 3 4 5 1 2 5 3 2 1 4 5 10 16 14 17 13 16 17 17 13
10 8 9 13 15 18 23 26 32 31 8 3 0 2 4 3 2 3 0 3 2 1 2 4 2 1 3 2 4 9 8 7 7 4 1 2 2 5 4 7 12 2 9 8 6 15 13
12 10 10 12 15 18 21 24 27 31 17 3 1 3 3 2 3 3 3 2 3 1 1 1 3 2 1 5 6 3 4 5 7 7 7 3 2 3 4 6 3 2 8 7 8 11 13
12 12 8 13 14 16 18 21 23 22 21 4 1 2 3 3 4 3 4 4 3 2 1 1 1 0 3 4 4 5 4 3 2 2 5 5 1 3 2 4 4 2 8 8 6 4 14
12 10 11 11 12 14 16 18 19 21 12 6 3 1 4 6 3 4 3 1 3 0 3 2 2 3 3 1 1 1 2 1 3 7 1 5 3 2 2 4 4 2 13 16 7 5 16
12 11 11 10 12 14 15 15 15 16 15 8 3 5 4 4 1 3 3 3 4 2 1 2 4 4 2 2 1 2 2 2 2 2 3 3 2 3 4 3 4 8 15 14 3 6 17
13 11 10 10 10 12 13 13 14 11 12 7 1 10 3 3 1 1 2 4 2 2 2 3 3 2 2 2 0 2 1 3 1 3 3 1 2 2 1 2 5 12 4 5 5 11 13
13 10 10 10 10 11 11 9 10 9 10 5 3 5 5 4 3 1 1 0 2 4 3 1 3 2 3 1 1 3 2 1 3 1 4 1 3 2 2 3 1 6 5 4 7 10 12
Wind_Direction
54 42 28 20 11 5 5 7 1 356 353 351 348 346 344 340 338 336 333 330 330 328 325 321 320 318 296 75 115 320 10 4 24 67 76 87 73 83 10 192 329 211 294 249 240 264 239
47 32 21 13 9 3 1 1 358 354 351 349 346 343 340 337 334 332 329 327 326 323 316 308 310 314 271 101 298 200 8 23 40 58 37 37 139 162 125 149 161 312 288 276 278 230 222
38 26 18 10 5 360 359 358 356 352 349 347 344 341 338 334 332 330 328 325 326 321 310 305 309 332 79 156 288 103 66 90 28 81 99 66 137 141 135 134 255 240 316 306 205 217 232
23 18 15 7 3 359 358 356 354 350 348 345 342 340 335 331 329 326 324 324 326 335 344 53 1 6 102 344 106 98 89 63 55 53 94 103 79 102 65 137 27 15 56 347 183 161 184
41 19 11 7 2 358 356 355 350 347 345 343 341 337 334 331 328 325 321 322 321 28 73 69 34 55 84 338 54 8 25 107 82 55 46 85 68 86 34 101 2 7 248 225 314 194 134
7 19 12 7 3 357 355 352 349 345 344 343 340 338 337 335 331 327 322 320 9 52 23 51 111 52 21 352 2 53 1 105 96 87 47 55 56 84 46 94 233 243 246 244 249 219 176
17 4 8 8 1 357 354 350 348 347 345 343 340 338 337 336 332 331 2 50 21 3 40 85 267 265 333 314 359 34 4 74 18 51 19 15 60 223 218 206 124 116 198 252 262 249 238
15 8 3 359 0 358 354 351 349 347 345 342 340 337 336 336 330 2 67 69 62 244 342 360 264 287 241 274 34 7 39 75 45 10 350 9 245 241 213 141 178 174 229 253 272 256 192
30 16 360 358 355 354 358 353 348 346 345 343 342 340 337 334 333 35 75 75 319 176 84 331 11 49 297 56 77 341 81 90 75 19 304 212 253 63 294 226 181 209 204 224 234 321 247
7 6 15 359 356 350 351 353 349 348 345 344 343 341 339 334 54 285 55 321 328 167 77 323 337 341 19 104 63 277 194 130 93 230 203 232 271 234 210 252 165 259 226 241 270 14 261
353 9 4 7 358 356 348 349 350 349 348 344 340 338 347 33 145 58 302 322 280 71 35 306 348 291 315 104 218 323 256 96 197 183 124 256 229 216 215 221 165 234 141 180 188 207 323
343 4 8 5 1 357 352 348 349 349 347 343 339 338 346 17 45 39 323 322 63 45 261 4 321 349 12 14 21 325 357 18 83 244 230 248 308 230 213 220 190 131 114 53 57 103 248
35 358 3 8 2 357 354 353 347 346 344 340 336 345 37 32 320 328 338 50 35 119 313 346 328 5 340 318 351 10 358 2 5 352 353 310 234 276 170 204 95 118 75 313 304 216 239
33 10 3 5 3 1 358 352 351 345 343 341 341 12 29 71 322 330 58 53 86 287 2 348 329 315 347 16 8 345 38 20 23 6 307 329 320 206 173 218 219 184 167 177 252 232 248
72 17 6 2 5 1 2 353 350 347 345 345 358 10 18 335 340 74 73 57 213 34 318 349 324 13 342 18 21 22 67 20 31 10 348 337 271 311 229 282 150 188 192 203 242 103 280
69 30 7 7 4 2 3 356 352 350 347 353 77 65 311 335 343 62 75 118 79 41 340 9 6 47 317 342 7 26 35 357 343 3 295 348 296 272 324 351 356 208 290 277 290 254 258
82 41 16 10 6 3 3 360 356 352 348 5 57 67 275 345 46 48 108 146 118 73 17 33 56 316 39 357 320 301 29 353 355 330 45 8 297 281 342 210 328 350 314 293 251 227 263
92 52 33 13 8 5 5 2 2 355 354 48 101 46 323 0 50 33 101 77 29 7 11 15 82 73 55 19 321 311 55 81 360 19 11 335 288 280 283 288 283 257 305 317 268 282 251
98 60 40 22 16 7 8 4 3 2 16 118 83 289 331 55 123 80 95 66 62 28 36 21 50 46 20 34 329 29 39 171 34 13 354 336 317 314 303 308 44 7 327 321 328 276 250
108 70 46 26 15 13 13 8 4 4 24 88 84 31 354 44 28 109 128 84 102 28 66 64 61 64 41 14 14 326 342 15 341 326 348 25 356 265 283 300 305 293 292 300 284 283 295
114 73 54 42 20 18 19 15 11 10 36 91 30 122 175 33 20 74 71 60 85 34 23 32 80 69 62 321 308 237 236 333 302 303 35 66 268 264 279 274 275 281 282 290 288 280 255
108 77 61 51 35 23 24 22 19 17 61 79 113 131 44 87 39 67 13 44 104 27 57 54 82 319 182 203 216 273 175 190 229 331 49 263 266 316 286 285 292 296 316 328 308 312 288
111 83 68 60 48 37 32 28 25 25 60 89 63 50 102 339 67 90 74 146 124 92 81 85 103 331 312 264 232 246 219 212 233 266 119 229 264 299 262 322 313 65 338 26 51 28 13
110 97 73 70 59 48 39 37 34 32 53 102 109 113 93 93 82 102 139 108 120 72 125 344 130 164 275 321 284 280 249 242 209 238 196 202 217 264 280 313 4 70 26 1 70 41 23
129 106 90 76 64 54 46 44 43 44 52 73 70 85 102 100 110 102 110 109 97 13 67 289 305 266 327 345 0 338 345 14 31 206 184 195 175 276 281 295 237 324 3 347 353 35 15
124 119 95 84 73 62 53 46 45 43 49 73 52 81 92 119 222 125 127 96 129 98 9 269 323 332 21 24 351 303 271 340 317 331 157 198 183 172 312 293 287 30 320 320 305 209 6
128 113 103 90 74 71 60 50 44 40 50 79 44 26 82 102 261 107 142 150 129 109 142 298 341 3 352 32 284 244 278 192 244 225 270 305 352 187 272 248 279 338 321 310 58 317 336
128 116 114 100 85 70 64 51 38 42 41 73 351 14 98 97 349 55 95 116 81 80 112 291 35 2 13 42 241 275 176 252 242 244 313 270 318 305 307 339 294 358 354 61 279 306 315
129 129 120 105 94 77 68 54 47 55 49 69 65 358 47 84 162 63 32 17 89 173 140 43 180 229 217 64 209 271 276 307 194 300 33 174 357 299 284 315 61 358 116 36 328 305 312